Weather History for Spencer, IA

Change the Weather History Date:

Wednesday, August 7, 2013

  Actual Average Record
Temperature  
Mean Temperature 70 °F -  
Max Temperature 80 °F 83 °F 97 °F (1988)
Min Temperature 59 °F 58 °F 43 °F (1989)
Cooling Degree Days 4    
Growing Degree Days 20 (Base 50)    
Moisture  
Dew Point 58 °F    
Average Humidity 73    
Maximum Humidity 94    
Minimum Humidity 45    
Precipitation  
Precipitation 0.00 in - - ()
Sea Level Pressure  
Sea Level Pressure 29.95 in    
Wind  
Wind Speed 7 mph (North)    
Max Wind Speed 14 mph    
Max Gust Speed -    
Visibility 10 miles    
Events      
Averages and records for this station are not official NWS values.
T = Trace of Precipitation, MM = Missing Value Source: NWS Daily Summary

Daily Weather History Graph

Daily Weather History Graph

Search for Another Location

Airport:

Trip Planner

Search our weather history database for the weather conditions in past years. The results will help you decide how hot, cold, wet, or windy it might be!

Date:

Astronomy

Aug. 07, 2013 Rise Set
Actual Time 6:17 AM CDT 8:34 PM CDT
Civil Twilight 5:46 AM CDT 9:05 PM CDT
Nautical Twilight 5:07 AM CDT 9:44 PM CDT
Astronomical Twilight 4:23 AM CDT 10:28 PM CDT
Moon 7:10 AM CDT (8/7) 8:38 PM CDT (8/7)
Length of Visible Light 15h 19m
Length of Day
14h 16m
New Moon, 1% of the Moon is Illuminated
Aug 7
New Moon
Aug 14
First Quarter
Aug 20
Full
Aug 28
Last Quarter
Sep 5
New

Hourly Weather History & Observations

Time (CDT) Temp. Dew Point Humidity Pressure Visibility Wind Dir Wind Speed Gust Speed Precip Events Conditions
12:53 AM 64.0 °F 62.1 °F 93% 29.84 in 10.0 mi NNW 3.5 mph - N/A   Clear
1:53 AM 64.0 °F 62.1 °F 93% 29.84 in 9.0 mi NW 3.5 mph - N/A   Clear
2:53 AM 64.9 °F 57.9 °F 78% 29.86 in 10.0 mi NNW 9.2 mph - N/A   Clear
3:37 AM 62.6 °F 59.0 °F 88% 29.88 in 10.0 mi North 10.4 mph - N/A   Scattered Clouds
3:53 AM 63.0 °F 60.1 °F 90% 29.86 in 8.0 mi North 11.5 mph - N/A   Mostly Cloudy
4:25 AM 62.6 °F 60.8 °F 94% 29.89 in 10.0 mi North 9.2 mph - N/A   Scattered Clouds
4:53 AM 62.1 °F 59.0 °F 90% 29.86 in 10.0 mi North 9.2 mph - N/A   Clear
5:21 AM 60.8 °F 59.0 °F 94% 29.90 in 10.0 mi NNW 5.8 mph - N/A   Scattered Clouds
5:30 AM 60.8 °F 59.0 °F 94% 29.91 in 10.0 mi NNW 9.2 mph - N/A   Mostly Cloudy
5:53 AM 62.1 °F 59.0 °F 90% 29.88 in 10.0 mi North 11.5 mph - N/A   Overcast
6:53 AM 63.0 °F 59.0 °F 87% 29.90 in 10.0 mi North 10.4 mph - N/A   Overcast
7:53 AM 64.0 °F 59.0 °F 84% 29.93 in 10.0 mi North 9.2 mph - N/A   Overcast
8:24 AM 64.4 °F 59.0 °F 83% 29.97 in 10.0 mi North 8.1 mph - N/A   Overcast
8:53 AM 64.0 °F 57.9 °F 80% 29.96 in 10.0 mi North 11.5 mph - N/A   Overcast
9:07 AM 66.2 °F 57.2 °F 73% 29.99 in 10.0 mi NNW 9.2 mph - N/A   Overcast
9:53 AM 68.0 °F 57.9 °F 70% 29.97 in 10.0 mi North 13.8 mph - N/A   Overcast
10:53 AM 69.1 °F 57.0 °F 65% 30.00 in 10.0 mi North 8.1 mph - N/A   Overcast
11:53 AM 71.1 °F 57.0 °F 61% 30.02 in 10.0 mi NNW 3.5 mph - N/A   Overcast
12:43 PM 73.4 °F 55.4 °F 53% 30.03 in 10.0 mi NNE 9.2 mph - N/A   Mostly Cloudy
12:53 PM 73.9 °F 57.0 °F 55% 30.01 in 10.0 mi North 6.9 mph - N/A   Mostly Cloudy
1:53 PM 75.0 °F 55.9 °F 51% 30.00 in 10.0 mi North 8.1 mph - N/A   Scattered Clouds
2:53 PM 78.1 °F 55.9 °F 46% 29.99 in 10.0 mi WNW 3.5 mph - N/A   Clear
3:53 PM 79.0 °F 55.9 °F 45% 29.98 in 10.0 mi Variable 3.5 mph - N/A   Partly Cloudy
4:53 PM 78.1 °F 55.0 °F 45% 29.98 in 10.0 mi Calm Calm - N/A   Clear
5:53 PM 77.0 °F 55.0 °F 47% 29.99 in 10.0 mi WNW 6.9 mph - N/A   Partly Cloudy
6:53 PM 77.0 °F 55.9 °F 48% 29.99 in 10.0 mi NNW 4.6 mph - N/A   Clear
7:53 PM 73.9 °F 57.0 °F 55% 29.99 in 10.0 mi North 4.6 mph - N/A   Clear
8:53 PM 66.9 °F 57.9 °F 73% 30.01 in 10.0 mi NE 6.9 mph - N/A   Clear
9:53 PM 64.0 °F 55.9 °F 75% 30.03 in 10.0 mi ENE 5.8 mph - N/A   Clear
10:53 PM 60.1 °F 55.0 °F 83% 30.04 in 10.0 mi Calm Calm - N/A   Clear
11:53 PM 59.0 °F 54.0 °F 83% 30.04 in 10.0 mi East 5.8 mph - N/A   Clear